July 6th
(Preview)
July
9
1033
Meteorites http://astronomy.activeboard.com/t43749291/johnstown-meteorite/
Wallops Flight Facility
(
1 2 3
)
(Preview)
General news
22
5449
The NASA Wallops Flight Facility, Wallops Island, Va., has been selected by the Space and Missile Systems Centre's Detachment 12 as the launch site for the Air Force Research Laboratory's TacSat 2 satellite. The launch is scheduled for November 2006.
The satellite will be launched on an Air Forc...
July 5th
(Preview)
July
8
1003
Meteorites http://astronomy.activeboard.com/t54257159/maromandia-meteorite/
Comet 302P/Lemmon-PANSTARRS
(Preview)
Comets 2015
2
961
Ephemeris Date TT R. A. (2000) Decl. Delta r Elong. Phase Mag
2015 06 10 18 43 42.8 -19 14 30 2.6347 3.5960 158.0 6.1 20.2
2015 06 11 18 43 09.6 -19 15 46 2.6279 3.5944 159.0 5.8 20.2
2015 06 12 18 42 35.7 -19 17 05 2.6213 3.5928 160.1 5.5 20.1
2015 06 13 18 42 01.1 -19 18 25 2.6149 3.5912 161.2 5.2 20.1
2015 06 1...
Asteroid 2015 LN21
(Preview)
Asteroids 2015
0
479
The 64 - 140 metre wide asteroid 2015 LN21 will make a close pass (29.4 LD, 0.0755 AU) travelling at 7.45 km/second, to the Earth-Moon system on the 5th July 2015 @ 21:31 UT ±00:01. See more The Lunar Distance (LD), the distance between Earth and the Moon, equals 384,401 km, (or 0.00256 AU).
Oort Cloud
(Preview)
Solar System
7
5867
Subtle variations in the cosmic microwave radiation left over from the Big Bang may finally reveal the distant Oort Cloud, thought to send comets hurtling into the Solar System. Since the 1930s, astronomers have theorised that a spherical shell of icy objects surrounds the Solar System, 50,000 to...
Ellerman Bombs
(Preview)
Solar 2013
2
3387
Title: Statistical Analysis of Small Ellerman Bomb Events Authors: C. J. Nelson, J. G. Doyle, R. Erdelyi, Z. Huang, M. Madjarska, M. Mathioudakis, S. Mumford, K. Reardon The properties of Ellerman bombs (EBs), small-scale brightenings in the H-alpha line wings, have proved difficult to establi...
Sun 19.10.14
(Preview)
Solar 2014
7
8757
Three panel photomosaic captured with a 100mm f5/ Helios refractor and vesta pro webcam
IRAS 04186+5143
(Preview)
Stars/galaxy News
0
365
Title: Not a galaxy: IRAS 04186+5143, a new young stellar cluster in the outer Galaxy Author: J. L. Yun, D. Elia, A. A. Djupvik, J. M. Torrelles, S. Molinari We report the discovery of a new young stellar cluster in the outer Galaxy located at the position of an IRAS PSC source that has been previously mi...
OGLE-2012-BLG-0563Lb
(Preview)
Exoplanets
0
627
Title: OGLE-2012-BLG-0563Lb: a Saturn-mass Planet around an M Dwarf with the Mass Constrained by Subaru AO imaging Author: A. Fukui, A. Gould, T. Sumi, D. P. Bennett, I. A. Bond, C. Han, D. Suzuki, J.-P. Beaulieu, V. Batista, A. Udalski, R. A. Street, Y. Tsapras, M. Hundertmark, F. Abe, M. Freeman, Y...
Supernova 2011dh
(
1 2 3 4
)
(Preview)
Supernovae
32
25127
A possible magnitude 14 supernova was discovered on the 1st June, 2011, in the Whirlpool galaxy (Messier 51) in the constellation Canes Venatici. The supernova is located 150 East and 90 South from the center of the galaxy. Position (2000): RA 13 30 36 | Dec +47° 06' 33.0"
Holm 15A
(Preview)
Galaxies
1
604
Giant galactic core formed after black hole battle The largest galactic core ever seen may be the remnant of a battle for black hole supremacy. Omar Lopez-Cruz of Mexico's National Institute of Astrophysics, Optics and Electronics and his team measured the core of galaxy Holm 15A, 650 million ligh...
WD J1916+3938
(Preview)
Stars
2
733
Title: Discovery of a ZZ Ceti in the Kepler Mission Field Authors: J. J. Hermes, Fergal Mullally, R. H. Østensen, Kurtis A. Williams, John Telting, John Southworth, S. Bloemen, Steve B. Howell, Mark Everett, D. E. Winget We report the discovery of the first identified pulsating DA white dwarf in the...
Comet C/2010 S1 (LINEAR)
(Preview)
Comets
8
1904
Orbital elements: C/2010 S1 (LINEAR) T 2013 May 19.9695 TT MPC q 5.905842 (2000.0) P Q Peri. 118.5400 +0.5359915 -0.2229905 Node 93.4506 -0.6945370 -0.6647686 e 1.0 Incl. 125.3414 +0.4799286 -0.7129922 From 190 observations 2010 Sept. 21-Oct. 21. [url=http://www.minorplanetcenter.org/mp...
Pluto Occultation
(
1 2
)
(Preview)
Events
12
20855
[url=http://www.activeboard.com/forum.spark?forumID=58381&sub...
«First < 1
313 314 315 316 317
2461 > Last» | Page
